Terug naar catalogus

SHIJIAN 6 05B

SJ-6 05B

ActiefWetenschapSSO
NORAD 49962·PAYLOAD·🇨🇳 China

Gelanceerd Dec 10, 2021 vanaf Jiuquan Satellite Launch Center

Loading…

Volgende Passages (komende 24 uur)

TLE

VersSource: Space-Track

Epoch: Sep 14, 2026, 17:04 UTC

1 49962U 21122B   26257.71159126  .00002195  00000-0  13026-3 0  9994
2 49962  97.3897 235.3932 0003173  89.1072 271.0523 15.12346886263277

Volg SHIJIAN 6 05B in realtime met AllMySat

Download on the App Store